Lid_Strength_Index
1 2 3 5 7 7 10 9 8 9 8 6 5 6 7 6 8 10 2 1 -0 -0 -1 -1 -1 -1 -1 -1 -1 -1 -1 -1 -1 -1 -1 -1 -1 -1 -1 -1 -1 -1 -1 -1 -1 -1 -1 -1 -1
3 5 5 6 8 11 10 9 9 8 6 5 5 6 6 7 4 3 2 1 0 -0 -1 -1 -1 -1 -1 -1 -1 -1 -1 -1 -1 -1 -1 -1 -1 -1 -1 -1 -1 -1 -1 -1 -1 -1 -1 -1 -1
4 5 6 7 9 11 10 8 8 7 5 6 6 4 6 7 4 3 1 0 1 -0 -1 -1 -1 -1 -1 -1 -1 -1 -1 -1 -1 -1 -1 -1 -1 -1 -1 -1 -1 -1 -1 -1 -1 -1 -1 -1 -1
5 4 5 9 10 9 9 8 7 7 6 5 5 8 6 2 3 1 0 -0 -0 -0 -1 -1 -1 -1 -1 -1 -1 -1 -1 -1 -1 -1 -1 -1 -1 -1 -1 -1 -1 -1 -1 -1 -1 -1 -1 -1 -1
6 6 8 10 9 8 8 8 6 7 6 6 6 8 8 3 2 0 0 -0 0 -0 -1 -1 -1 -1 -1 -1 -1 -1 -1 -1 -1 -1 -1 -1 -1 -1 -1 -1 -1 -1 -1 -1 -1 -1 -1 -1 -1
7 8 9 12 11 10 9 9 6 7 8 8 7 7 6 2 3 1 0 0 -0 -0 -1 -1 -1 -1 -1 -1 -1 -1 -1 -1 -1 -1 -1 -1 -1 -1 -1 -1 -1 -1 -1 -1 -1 -1 -1 -1 -1
8 8 12 11 11 10 9 8 6 8 7 8 7 8 6 4 1 1 0 -0 -0 -0 1 0 -1 -1 -1 -1 -1 -1 -1 -1 -1 -1 -1 -1 -1 -1 -1 -1 -1 -1 -1 -1 -1 -1 -1 -1 -1
8 8 11 11 10 10 9 9 9 7 7 6 6 8 5 7 1 1 1 3 3 2 2 1 -1 -0 -1 -1 -2 -1 -1 -1 -1 -1 -1 -1 -1 -1 -1 -1 -1 -1 -1 -1 -1 -1 -1 -1 -1
8 9 10 10 10 9 8 8 9 7 6 7 6 6 3 2 1 2 3 3 4 3 2 1 1 -1 -1 -1 -1 -2 -2 -2 -2 -2 -2 -1 -0 -1 -1 -1 -1 -1 -1 -1 -1 -1 -1 -1 -1
6 8 9 8 8 8 8 7 7 7 7 7 4 3 2 2 2 2 4 3 3 3 2 1 -1 -1 -1 -1 -2 -2 -2 -2 -2 -2 -2 -2 -2 -2 -1 -2 -2 -1 -1 -1 -1 -1 -1 -1 -1
8 7 8 8 8 7 7 7 7 7 8 6 4 4 3 3 3 3 3 2 2 2 1 -0 -1 -1 -1 -1 -1 -1 -1 -2 -2 -2 -2 -2 -1 -2 -1 -1 -1 -1 -1 -1 -1 -1 -1 -1 -1
8 9 8 7 7 7 8 8 8 8 8 6 3 3 3 4 3 2 2 4 3 1 0 -0 -1 -1 -1 -1 -1 -1 -1 -1 -1 -1 -2 -1 -1 -1 -1 -1 -1 -1 -1 -1 -1 -1 -1 -1 -1
8 8 8 8 8 8 8 8 8 8 7 6 3 3 4 3 3 2 2 2 1 1 0 -0 -1 -1 -1 -1 -1 -1 -1 -1 -1 -1 -2 -1 -1 -1 -1 -1 -1 -1 -1 -1 -0 -0 -0 -0 -0
8 8 8 8 8 8 8 8 7 6 5 4 3 4 3 3 3 2 2 2 1 1 0 -0 -0 -1 -1 -1 -1 -1 -1 -2 -1 -1 -1 -2 -1 -1 -0 -1 -1 -1 -1 -1 -1 -0 -0 0 -0
7 7 7 7 8 8 7 8 7 4 5 4 4 4 3 3 2 2 2 2 1 1 0 -0 -1 -1 -1 -1 -1 -1 -1 -1 -1 -1 -2 -2 -2 -1 -1 -0 -0 -1 -1 -1 -1 -0 -0 0 0
8 8 8 7 7 7 7 8 6 4 5 5 4 4 4 3 3 2 1 1 1 0 0 -0 -0 -1 -1 -1 -1 -1 -1 -1 -1 -1 -1 -1 -2 -2 -1 -0 -0 -1 -1 -1 0 0 0 0 0
8 9 9 8 6 7 6 8 6 4 5 6 5 5 4 4 3 2 1 1 1 0 0 0 -0 -0 -1 -1 -1 -2 -2 -1 -1 -1 -1 -2 -1 -1 -1 -0 -0 -1 -0 -0 0 0 0 1 1
9 9 9 9 8 6 8 8 7 5 6 5 5 5 5 4 3 2 1 1 0 0 -0 -0 -0 -0 -1 -1 -1 -1 -1 -1 -1 -1 -1 -2 -1 -1 -1 -1 -1 -1 0 0 0 1 1 1 1
8 8 9 9 8 8 9 9 8 6 6 6 6 5 5 4 3 2 2 1 1 0 0 0 0 -0 -0 0 0 0 1 -0 -0 -1 -2 -2 -2 -2 -1 -1 -1 -0 0 0 0 1 2 2 1
8 9 9 9 7 7 9 9 7 6 7 6 6 5 5 4 4 3 2 2 1 1 0 0 0 -0 -0 -0 -0 -0 0 -0 -1 -1 -1 -2 -2 -2 -1 -1 -0 -0 1 0 0 1 2 2 1
9 9 9 9 9 7 8 10 9 7 6 6 5 4 4 4 4 3 3 2 1 1 1 0 0 -0 -0 -1 -0 -0 -0 -0 0 -0 -0 -1 -1 -2 -1 -1 -1 -0 -0 1 1 1 2 3 1
10 8 9 9 10 11 9 12 10 9 8 7 6 5 5 4 4 3 3 3 2 1 0 0 -0 -0 -0 -1 -0 0 1 2 1 0 -0 -0 -1 -1 -1 -1 -1 -1 -0 1 1 0 1 2 3
9 8 9 9 10 10 11 11 11 8 10 8 6 5 5 4 4 4 4 3 2 1 1 0 -0 -0 -0 -1 -0 0 1 1 0 0 -0 -0 -1 -1 -1 -1 -1 -0 -0 -0 0 0 1 1 2
8 9 9 10 10 12 11 11 11 10 9 7 6 5 5 5 4 4 3 2 2 2 1 1 0 0 -0 -0 -0 -0 0 1 1 1 1 1 1 -0 -1 -1 -1 -1 -0 -0 -0 0 1 2 2
8 9 13 13 13 13 11 11 10 7 7 6 6 5 5 5 5 4 3 3 2 1 1 1 1 1 -0 -0 -0 -0 0 0 1 1 2 1 2 1 -0 -0 -0 -0 -0 -0 -0 0 1 2 2
9 9 12 16 14 13 12 13 10 8 7 6 5 5 5 5 4 4 3 3 2 2 1 2 1 1 0 0 0 -0 -0 1 1 1 1 1 2 1 0 0 0 -0 -0 -0 -0 0 0 1 2
9 10 10 12 13 13 11 11 9 7 7 6 6 5 5 5 4 3 3 3 3 2 2 1 2 1 1 1 0 0 0 0 1 1 1 2 1 2 1 1 2 1 1 1 -0 1 1 1 2
9 9 11 10 15 16 13 13 11 10 8 7 6 6 5 4 4 3 3 3 2 2 1 1 1 2 1 1 1 1 1 1 1 1 3 1 1 0 1 2 3 2 2 1 1 1 1 2 2
10 10 11 11 12 15 16 13 9 9 8 7 6 5 5 4 4 3 3 2 2 2 2 2 2 2 2 2 2 2 1 2 2 3 2 2 1 2 2 3 3 3 3 2 2 2 3 3 3
9 10 10 12 14 12 13 13 8 7 7 6 6 5 5 4 3 3 3 2 2 2 2 2 2 2 2 2 2 2 2 3 3 2 3 3 3 3 3 2 3 4 3 3 3 4 3 4 4